HIMAWARI-9

Last updated on Nov. 29, 2020, 6:16 a.m. UTC

1 41836U 16064A   20333.46248358 -.00000257  00000-0  00000-0 0  9995
2 41836   0.0168  21.4063 0000674 234.1981 119.4680  1.00273959 14987
UTC
Height (km)
Latitude
Longitude
Inclination
Orbital Period
UTC large
Height (km)
Speed (km/s)
/
Latitude / Longitude
Inclination (degrees)
Orbital Period (minutes)
Azimuth
Elevation
Range (km)
Doppler Factor
iOS Compass Heading
iOS Angle

Next 30 passes for location: Hong Kong

Rise time Rise Azimuth (degrees) Set time Set Azimuth (degrees) Duration Max altitude (degrees)

No matching passes for this satellites